Overview Statistics Trail Chart Weather Telemetry Raw packets
 

This is the latest recevied weather packets stored in our database for station/object KO4ZGL-13. If no packets are shown the sender has not sent any weather packets the latest 10 day(s).

<< 85 86 87 88 89 90 91 >>
Time Temp. Humidity Pressure Rain* Wind** Luminosity Snow
1788015680 25° C 99% 1022.1 hPa 0 mm - 282 W/m² -
1788015374 24.44° C 99% 1022.1 hPa 0 mm - 296 W/m² -
1788015069 24.44° C 99% 1022.1 hPa 0 mm - 255 W/m² -
1788014767 24.44° C 99% 1022.1 hPa 0 mm - 216 W/m² -
1788014462 23.89° C 99% 1022 hPa 0 mm - 186 W/m² -
1788014157 23.89° C 99% 1022.1 hPa 0 mm - 139 W/m² -
1788013851 23.89° C 99% 1022.2 hPa 0 mm - 115 W/m² -
1788013550 23.89° C 99% 1022.1 hPa 0 mm - 99 W/m² -
1788013245 23.89° C 99% 1022.1 hPa 0 mm - 81 W/m² -
1788012945 23.89° C 99% 1021.9 hPa 0 mm - 81 W/m² -
1788012644 23.33° C 99% 1021.8 hPa 0 mm - 86 W/m² -
1788012339 23.89° C 99% 1021.8 hPa 0 mm - 88 W/m² -
1788012035 23.89° C 99% 1021.7 hPa 0 mm - 86 W/m² -
1788011733 23.89° C 99% 1021.5 hPa 0 mm - 84 W/m² -
1788011428 23.33° C 99% 1021.7 hPa 0 mm - 84 W/m² -
1788011128 23.89° C 99% 1021.6 hPa 0 mm - 84 W/m² -
1788010822 23.89° C 99% 1021.8 hPa 0 mm - 82 W/m² -
1788010521 23.89° C 99% 1021.4 hPa 0 mm - 89 W/m² -
1788010216 23.89° C 99% 1021.3 hPa 0 mm - 99 W/m² -
1788009916 23.89° C 99% 1021.6 hPa 0 mm - 104 W/m² -
1788009620 23.33° C 99% 1021.3 hPa 0 mm - 100 W/m² -
1788009309 23.89° C 99% 1021.4 hPa 0 mm - 88 W/m² -
1788009004 23.89° C 99% 1021.3 hPa 0 mm - 69 W/m² -
1788008699 23.89° C 99% 1021 hPa 0 mm - 62 W/m² -
1788008397 23.89° C 99% 1020.9 hPa 0 mm - 58 W/m² -

* Rain latest hour (hover to see other rain measurements)
** Current wind speed in m/s (hover to see current wind gust speed)